FW2998 Weather Reports


time (UTC)temp
C
wind
direction
speed
KPH
gust
KPH
rain 1hr
cm
rain 24hr
cm
rain mn
cm
humidity
%
barometer
mb
20260503201539 23 0 1.6 12.9 0.00 0.10 0.08 36 1017.6
20260503201024 23 0 1.6 11.3 0.00 0.10 0.08 36 1017.8
20260503200520 23 0 0.0 3.2 0.03 0.10 0.08 37 1017.7
20260503200037 23 0 0.0 6.4 0.03 0.10 0.08 38 1017.8
20260503195519 23 0 0.0 12.9 0.03 0.10 0.08 38 1018.0
20260503195020 22 280 3.2 12.9 0.03 0.10 0.08 35 1018.1
20260503194538 23 279 1.6 11.3 0.03 0.10 0.08 36 1018.1
20260503194020 22 0 0.0 14.5 0.03 0.10 0.08 38 1018.1
20260503193522 22 0 4.8 14.5 0.03 0.10 0.08 36 1018.2
20260503193036 22 224 0.0 11.3 0.03 0.10 0.08 38 1018.4
20260503192521 22 94 0.0 11.3 0.03 0.10 0.08 37 1018.4
20260503192018 22 261 0.0 14.5 0.03 0.10 0.08 38 1018.5
20260503191538 22 291 3.2 14.5 0.03 0.10 0.08 37 1018.6
20260503191021 22 71 1.6 14.5 0.00 0.08 0.05 35 1018.8
20260503190523 22 66 1.6 9.7 0.00 0.08 0.05 35 1018.8
20260503190049 22 0 1.6 9.7 0.00 0.08 0.05 35 1018.9
20260503185520 22 0 0.0 8.0 0.00 0.10 0.05 36 1019.1
20260503185020 22 0 1.6 16.1 0.00 0.10 0.05 34 1019.2
20260503184536 22 252 3.2 16.1 0.00 0.10 0.05 36 1019.3
20260503184019 22 288 3.2 16.1 0.00 0.10 0.05 34 1019.2
20260503183518 22 0 0.0 6.4 0.00 0.10 0.05 36 1019.3
20260503183042 22 271 0.0 6.4 0.00 0.10 0.05 37 1019.3
20260503182519 22 272 0.0 6.4 0.00 0.10 0.05 37 1019.5
20260503182019 22 0 0.0 9.7 0.00 0.10 0.05 36 1019.5
20260503181536 22 0 1.6 16.1 0.00 0.10 0.05 35 1019.5
20260503181022 22 0 1.6 16.1 0.00 0.10 0.05 37 1019.7
20260503180522 22 177 1.6 8.0 0.00 0.10 0.05 37 1019.6
20260503180039 22 113 0.0 6.4 0.00 0.10 0.05 39 1019.7
20260503175523 22 0 0.0 16.1 0.00 0.10 0.05 38 1019.8
20260503175022 22 249 0.0 16.1 0.00 0.10 0.05 37 1019.9
20260503174539 22 0 3.2 12.9 0.00 0.10 0.05 38 1019.8
20260503174022 22 0 0.0 6.4 0.00 0.10 0.05 39 1019.8
20260503173521 22 0 0.0 6.4 0.00 0.10 0.05 39 1019.8
20260503173056 22 0 0.0 6.4 0.00 0.10 0.05 37 1019.8
20260503172521 21 70 0.0 6.4 0.00 0.10 0.05 40 1019.9
20260503172021 21 0 0.0 12.9 0.00 0.10 0.05 41 1020.1
20260503171542 21 162 0.0 12.9 0.00 0.10 0.05 43 1020.1
20260503171022 21 0 1.6 6.4 0.00 0.10 0.05 40 1020.1
20260503170520 21 94 1.6 6.4 0.00 0.10 0.05 40 1020.1
20260503150521 18 0 0.0 4.8 0.00 0.10 0.05 46 1021.3
20260503131021 12 110 0.0 4.8 0.00 0.08 0.03 94 1020.6
20260503130520 11 0 0.0 4.8 0.00 0.08 0.03 95 1020.6
20260503110520 7 0 0.0 0.0 0.00 0.10 0.03 92 1019.7
20260503081544 8 0 0.0 0.0 0.03 0.13 0.03 90 1017.6
20260503081019 8 0 0.0 0.0 0.03 0.13 0.03 90 1017.6
20260503080519 8 0 0.0 0.0 0.03 0.13 0.03 90 1017.6
20260503072521 9 0 0.0 0.0 0.00 0.10 0.00 89 1017.3
20260503072022 9 0 0.0 0.0 0.00 0.10 0.00 89 1017.2
20260503071543 9 0 0.0 0.0 0.00 0.10 0.00 90 1017.1
20260503071019 9 0 0.0 0.0 0.00 0.10 0.00 90 1017.1
20260503070518 9 0 0.0 0.0 0.00 0.10 0.00 89 1017.1
20260503055019 11 0 0.0 0.0 0.00 0.10 0.00 89 1016.8
20260503054541 11 0 0.0 0.0 0.00 0.10 0.00 89 1016.7
20260503054018 11 0 0.0 0.0 0.00 0.10 0.00 89 1016.7
20260503053519 11 0 0.0 0.0 0.00 0.10 0.00 89 1016.7
20260503053034 11 0 0.0 0.0 0.00 0.10 0.00 90 1016.7
20260503052522 11 0 0.0 0.0 0.00 0.10 0.00 90 1016.7
20260503052020 11 0 0.0 0.0 0.00 0.10 0.00 90 1016.7
20260503051536 11 0 0.0 0.0 0.00 0.10 0.00 90 1016.7
20260503051021 11 0 0.0 0.0 0.00 0.10 0.00 90 1016.6
20260503050520 11 0 0.0 0.0 0.00 0.10 0.00 90 1016.6
20260503050037 11 0 0.0 0.0 0.00 0.10 0.00 90 1016.4
20260503045519 11 0 0.0 0.0 0.00 0.10 0.00 90 1016.5
20260503045020 11 0 0.0 0.0 0.00 0.10 0.00 90 1016.4
20260503044537 11 0 0.0 0.0 0.00 0.10 0.00 90 1016.4
20260503044019 11 0 0.0 0.0 0.00 0.10 0.00 90 1016.4
20260503043518 12 0 0.0 0.0 0.00 0.10 0.00 90 1016.4
20260503043036 12 0 0.0 0.0 0.00 0.10 0.00 90 1016.3
20260503042522 12 0 0.0 0.0 0.00 0.10 0.00 90 1016.4
20260503042018 12 0 0.0 0.0 0.00 0.10 0.00 90 1016.3
20260503041536 11 0 0.0 0.0 0.00 0.10 0.00 90 1016.4
20260503041019 12 0 0.0 0.0 0.00 0.10 0.00 90 1016.4
20260503040525 11 0 0.0 0.0 0.00 0.10 0.00 90 1016.5
20260503040035 12 0 0.0 0.0 0.00 0.10 0.00 90 1016.6
20260503035520 11 0 0.0 0.0 0.00 0.10 0.10 90 1016.5
20260503035019 11 0 0.0 0.0 0.00 0.10 0.10 90 1016.5
20260503034536 11 0 0.0 0.0 0.00 0.10 0.10 89 1016.4
20260503034020 12 0 0.0 0.0 0.00 0.10 0.10 89 1016.3
20260503033519 11 0 0.0 0.0 0.00 0.10 0.10 89 1016.3
20260503033043 11 0 0.0 0.0 0.00 0.10 0.10 89 1016.4
20260503032520 11 0 0.0 0.0 0.00 0.10 0.10 89 1016.4
20260503032020 11 0 0.0 0.0 0.00 0.10 0.10 89 1016.4
20260503031537 11 0 0.0 0.0 0.00 0.10 0.10 89 1016.2
20260503031020 11 0 0.0 0.0 0.00 0.10 0.10 88 1016.2
20260503030519 11 0 0.0 0.0 0.00 0.10 0.10 88 1016.2
20260503030035 11 0 0.0 0.0 0.00 0.10 0.10 88 1016.1
20260503025519 11 0 0.0 0.0 0.00 0.10 0.10 88 1015.9
20260503025020 11 0 0.0 0.0 0.00 0.10 0.10 88 1015.9
20260503024538 11 0 0.0 0.0 0.00 0.10 0.10 88 1016.0
20260503024021 11 0 0.0 0.0 0.00 0.10 0.10 87 1015.8
20260503023520 11 0 0.0 0.0 0.00 0.10 0.10 87 1015.5
20260503023034 11 0 0.0 0.0 0.00 0.10 0.10 87 1015.4
20260503022519 11 0 0.0 0.0 0.00 0.10 0.10 86 1015.2
20260503022019 11 0 0.0 0.0 0.00 0.10 0.10 86 1015.1
20260503021532 11 0 0.0 0.0 0.00 0.10 0.10 86 1015.1
20260503021019 11 0 0.0 0.0 0.00 0.10 0.10 86 1015.1
20260503020519 11 0 0.0 0.0 0.00 0.10 0.10 86 1015.1
20260503020044 11 0 0.0 0.0 0.00 0.10 0.10 86 1014.9
20260503015520 11 0 0.0 0.0 0.00 0.10 0.10 86 1014.9
20260503015019 11 0 0.0 0.0 0.00 0.10 0.10 85 1014.8
20260503014558 11 0 0.0 0.0 0.00 0.10 0.10 85 1014.6
20260503014020 11 0 0.0 0.0 0.00 0.10 0.10 85 1014.5
20260503013521 11 0 0.0 0.0 0.00 0.10 0.10 84 1014.5
20260503013040 12 0 0.0 0.0 0.00 0.10 0.10 84 1014.4
20260503012521 12 0 0.0 0.0 0.00 0.10 0.10 84 1014.5
20260503012017 12 0 0.0 0.0 0.00 0.10 0.10 84 1014.3
20260503011542 12 0 0.0 0.0 0.00 0.10 0.10 84 1014.2
20260503011021 12 0 0.0 0.0 0.00 0.10 0.10 83 1014.2
20260503010519 12 0 0.0 0.0 0.00 0.10 0.10 83 1014.1
20260503010047 12 0 0.0 0.0 0.00 0.10 0.10 83 1014.1
20260503005520 12 0 0.0 0.0 0.00 0.10 0.10 82 1014.0
20260503005020 12 0 0.0 0.0 0.00 0.10 0.10 81 1013.9
20260503004534 12 0 0.0 0.0 0.00 0.10 0.10 81 1013.9
20260503004018 12 0 0.0 0.0 0.00 0.10 0.10 80 1013.8
20260503003519 12 0 0.0 0.0 0.00 0.10 0.10 79 1013.8
20260503003036 13 0 0.0 0.0 0.00 0.10 0.10 79 1013.7
20260503002521 13 0 0.0 0.0 0.00 0.10 0.10 78 1013.7
20260503002017 13 0 0.0 0.0 0.00 0.10 0.10 78 1013.6
20260503001536 13 0 0.0 0.0 0.00 0.10 0.10 77 1013.5
20260503001019 13 0 0.0 0.0 0.00 0.10 0.10 76 1013.4
20260503000522 13 0 0.0 0.0 0.00 0.10 0.10 76 1013.4
20260503000036 14 0 0.0 0.0 0.00 0.10 0.10 75 1013.3
20260502235520 14 0 0.0 0.0 0.00 0.10 0.10 75 1013.3
20260502235019 14 0 0.0 0.0 0.00 0.10 0.10 75 1013.3
20260502234541 14 0 0.0 0.0 0.00 0.10 0.10 75 1013.2
20260502234018 14 0 0.0 0.0 0.00 0.10 0.10 75 1013.1
20260502233519 14 0 0.0 1.6 0.00 0.10 0.10 74 1012.9
20260502233036 15 0 0.0 1.6 0.00 0.10 0.10 74 1012.9
20260502232518 15 0 0.0 0.0 0.00 0.10 0.10 75 1012.9
20260502232019 15 0 0.0 0.0 0.00 0.10 0.10 74 1012.9
20260502231534 15 0 0.0 3.2 0.00 0.10 0.10 74 1012.8
20260502231017 15 0 0.0 3.2 0.00 0.10 0.10 74 1012.7
20260502230517 15 0 0.0 3.2 0.03 0.10 0.10 73 1012.7
20260502230036 15 0 0.0 1.6 0.03 0.10 0.10 75 1012.8
20260502225517 15 0 0.0 0.0 0.03 0.10 0.10 75 1012.9
20260502225017 15 0 0.0 0.0 0.03 0.10 0.10 74 1012.8
20260502224536 15 0 0.0 0.0 0.03 0.10 0.10 74 1012.8
20260502224020 15 0 0.0 0.0 0.03 0.10 0.10 74 1012.9
20260502223520 15 0 0.0 6.4 0.03 0.10 0.10 74 1012.7
20260502223038 15 0 0.0 6.4 0.03 0.10 0.10 74 1012.7
20260502222520 15 0 0.0 3.2 0.03 0.10 0.10 73 1012.7
20260502222020 15 0 0.0 3.2 0.03 0.10 0.10 73 1012.8
20260502221535 15 0 0.0 6.4 0.03 0.10 0.10 73 1012.8
20260502221018 15 0 0.0 6.4 0.03 0.10 0.10 73 1012.8
20260502220519 15 0 0.0 4.8 0.00 0.08 0.08 74 1012.8
20260502220032 15 0 0.0 4.8 0.00 0.08 0.08 73 1012.8
20260502215520 15 0 0.0 3.2 0.00 0.08 0.08 72 1012.8
20260502215019 15 0 0.0 3.2 0.00 0.08 0.08 73 1012.7
20260502214536 15 0 0.0 3.2 0.00 0.08 0.08 73 1012.8
20260502214019 15 52 0.0 1.6 0.00 0.08 0.08 72 1012.7
20260502213518 15 0 0.0 1.6 0.00 0.08 0.08 73 1012.7
20260502213036 15 0 0.0 3.2 0.00 0.08 0.08 72 1012.5
20260502212524 15 0 0.0 4.8 0.00 0.08 0.08 72 1012.3
20260502212020 15 0 0.0 4.8 0.00 0.08 0.08 72 1012.3
20260502211542 15 5 0.0 9.7 0.00 0.08 0.08 72 1012.4
20260502211023 15 0 0.0 9.7 0.00 0.08 0.08 72 1012.4
20260502210519 15 0 1.6 9.7 0.00 0.08 0.08 71 1012.3
20260502210038 15 107 1.6 9.7 0.00 0.08 0.08 70 1012.5
20260502205522 15 0 0.0 9.7 0.00 0.08 0.08 71 1012.6
20260502205025 15 0 0.0 8.0 0.00 0.08 0.08 70 1012.6
20260502204540 15 0 0.0 9.7 0.00 0.08 0.08 71 1012.6
20260502204020 15 76 0.0 9.7 0.00 0.08 0.08 72 1012.7
20260502203521 15 0 0.0 9.7 0.00 0.08 0.08 73 1012.6
20260502203039 15 0 1.6 9.7 0.00 0.08 0.08 75 1012.6
20260502202521 14 82 0.0 4.8 0.00 0.08 0.08 77 1012.5
20260502202022 13 0 0.0 4.8 0.00 0.08 0.08 78 1012.6